[Iaude] MPEC V101: 2016 VE4 [a=1.53,e=0.38,i=5.4,H=26.6]

mpec at si.edu mpec at si.edu
Thu Nov 10 13:37:41 EST 2016


M.P.E.C. 2016-V101                               Issued 2016 Nov. 10, 18:34 UT
 
     The Minor Planet Electronic Circulars contain information on unusual
         minor planets and routine data on comets.  They are published
    on behalf of Division F of the International Astronomical Union by the
          Minor Planet Center, Smithsonian Astrophysical Observatory,
                          Cambridge, MA 02138, U.S.A.

             Prepared using the Tamkin Foundation Computer Network

                              MPC at CFA.HARVARD.EDU
            URL http://www.minorplanetcenter.net/    ISSN 1523-6714


                                   2016 VE4
 
Observations:
     K16V04E* C2016 11 09.20984 02 10 18.40 +45 26 42.3                qEV101G96
     K16V04E  C2016 11 09.21416 02 10 22.92 +45 27 08.0          20.0 VqEV101G96
     K16V04E  C2016 11 09.21853 02 10 27.51 +45 27 34.5                qEV101G96
     K16V04E  C2016 11 09.22285 02 10 32.10 +45 28 01.0                qEV101G96
     K16V04E  C2016 11 09.25121 02 11 01.88 +45 30 47.9                qEV101G96
     K16V04E  C2016 11 09.25162 02 11 02.32 +45 30 50.2          20.4 VqEV101G96
     K16V04E  C2016 11 09.25203 02 11 02.77 +45 30 52.8          20.1 VqEV101G96
     K16V04E  C2016 11 09.25279002 11 02.06 +45 30 49.7          20.4 VtEV101H01
     K16V04E  C2016 11 09.25821802 11 07.82 +45 31 20.7          20.6 VtEV101H01
     K16V04E  C2016 11 09.26835602 11 18.57 +45 32 18.1          20.2 VtEV101H01
     K16V04E  C2016 11 09.27531102 11 25.98 +45 32 57.2          20.1 VtEV101H01
     K16V04E  C2016 11 10.08615502 30 43.08 +46 51 34.8          20.2 VtEV101H01
     K16V04E  C2016 11 10.09259302 30 52.88 +46 52 21.2          19.4 VtEV101H01
     K16V04E  C2016 11 10.09954802 31 03.44 +46 53 11.4          19.6 VtEV101H01
     K16V04E  C2016 11 10.10752802 31 15.51 +46 54 09.1          20.1 VtEV101H01
     K16V04E  C2016 11 10.16770 02 32 47.71 +47 01 12.6          20.1 VqEV101G96
     K16V04E  C2016 11 10.16811 02 32 48.38 +47 01 15.6          19.8 VqEV101G96
     K16V04E  C2016 11 10.16852 02 32 49.07 +47 01 19.4          19.8 VqEV101G96
     K16V04E  C2016 11 10.16897 02 32 49.63 +47 01 22.8          19.9 VqEV101G96
     K16V04E  C2016 11 10.18291 02 33 10.81 +47 03 03.6          19.3 RoEV101926
     K16V04E  C2016 11 10.18545 02 33 14.61 +47 03 21.5          19.4 RoEV101926
     K16V04E  C2016 11 10.18802 02 33 18.46 +47 03 38.9          19.5 RoEV101926
     K16V04E  C2016 11 10.38199 02 38 16.23 +47 23 22.8          19.5 RoEV101926
     K16V04E  C2016 11 10.38455 02 38 20.33 +47 23 36.7          19.5 RoEV101926
     K16V04E  C2016 11 10.38709 02 38 24.46 +47 23 49.5          20.0 RoEV101926
 
Observer details:
926 Tenagra II Observatory.  Observers M. Schwartz, P. R. Holvorcem.  Measurer
    M. Schwartz.  0.81-m f/7 Ritchey-Chretien + CCD.
G96 Mt. Lemmon Survey.  Observer R. G. Matheny.  Measurers E. J. Christensen,
    D. C. Fuls, A. R. Gibbs, A. D. Grauer, J. A. Johnson, R. A. Kowalski,
    S. M. Larson, G. J. Leonard, R. G. Matheny, R. L. Seaman, F. C. Shelly.
    1.5-m reflector + 10K CCD.
H01 Magdalena Ridge Observatory, Socorro.  Observers W. H. Ryan, E. V. Ryan.
    Measurer W. H. Ryan.  2.4-m f/8.9 reflector + CCD.
 
Orbital elements:
2016 VE4                                                 Earth MOID = 0.0005 AU
Epoch 2016 July 31.0 TT = JDT 2457600.5                 MPC
M 290.19155              (2000.0)            P               Q
n   0.52128333     Peri.  209.97790     +0.07462931     -0.99419589
a   1.5290446      Node   235.84656     +0.93252767     +0.09710892
e   0.3758318      Incl.    5.37315     +0.35330243     -0.04630762
P   1.89           H   26.6           G   0.15           U   7
Residuals in seconds of arc
161109 G96  0.1+  0.3+    161109 H01  0.0   0.1-    161110 G96  0.4-  0.6+
161109 G96  0.1-  0.2-    161109 H01  0.0   0.0     161110 926  0.0   0.1-
161109 G96  0.1-  0.1-    161110 H01  0.0   0.2+    161110 926  0.1-  0.4+
161109 G96  0.5+  0.5+    161110 H01  0.2+  0.1-    161110 926  0.2-  0.1+
161109 G96  0.4-  0.1-    161110 H01  0.2+  0.1-    161110 926  0.2+  0.0
161109 G96  0.3-  0.2-    161110 H01  0.0   0.1+    161110 926  0.1-  0.3+
161109 G96  0.1-  0.0     161110 G96  0.5-  0.7-    161110 926  0.0   0.4-
161109 H01  0.1+  0.0     161110 G96  0.0   0.6-
161109 H01  0.2+  0.0     161110 G96  0.8+  0.4+

Ephemeris:
2016 VE4                 a,e,i = 1.53, 0.38, 5                   q = 0.9544
Date    TT    R. A. (2000) Decl.     Delta      r     Elong.  Phase     V
2016 10 11    00 45 24.3 +30 55 02   0.1615  1.1473   155.6    21.1    24.0
...
2016 10 26    00 51 34.4 +34 59 00   0.08897 1.0737   152.3    25.4    22.7
...
2016 11 03    01 10 26.3 +38 48 12   0.05422 1.0393   150.1    28.4    21.6
...
2016 11 09    02 06 07.8 +45 06 00   0.03000 1.0165   149.8    29.4    20.3
2016 11 10    02 28 02.0 +46 43 24   0.02628 1.0130   149.6    29.6    20.0
2016 11 11    02 58 51.8 +48 24 54   0.02275 1.0096   149.0    30.4    19.7
...
2016 11 17    09 19 19.0 +16 20 20   0.01514 0.9908    97.7    81.5    20.3
...
2016 11 25    11 17 58.5 -17 37 27   0.04252 0.9712    66.9   110.8    23.9
...
2016 12 10    11 58 07.6 -26 05 54   0.1025  0.9538    69.5   104.7    25.4

A. U. Tomatic                (C) Copyright 2016 MPC           M.P.E.C. 2016-V101




More information about the Iaude mailing list